Sedalia, MO

6:46 PM CDT on July 27, 2017 (GMT -0500)
Sedalia Memorial

Weather History for KDMO - October, 2012

Change the Weather History Date:

Thursday, October 4, 2012

  Actual Average Record
Temperature  
Mean Temperature 60 °F 62 °F  
Max Temperature 72 °F 72 °F 93 °F (1938)
Min Temperature 48 °F 52 °F 29 °F (1987)
Degree Days  
Heating Degree Days 5 5  
Month to date heating degree days 6 19  
Since 1 July heating degree days 46 64  
Cooling Degree Days 0 2  
Month to date cooling degree days 0 8  
Year to date cooling degree days 2080 1458  
Growing Degree Days 10 (Base 50)    
Moisture  
Dew Point 49 °F    
Average Humidity 64    
Maximum Humidity 80    
Minimum Humidity 48    
Precipitation  
Precipitation 0.20 in 0.13 in 5.54 in (1973)
Month to date precipitation 0.20 0.53  
Year to date precipitation 22.38 32.58  
Sea Level Pressure  
Sea Level Pressure 30.15 in    
Wind  
Wind Speed 10 mph (WNW)    
Max Wind Speed 18 mph    
Max Gust Speed 26 mph    
Visibility 10 miles    
Events Rain , Thunderstorm    
T = Trace of Precipitation, MM = Missing Value Source: NWS Daily Summary

Daily Weather History Graph

Daily Weather History Graph

Search for Another Location

Airport or City:

Trip Planner

Search our weather history database for the weather conditions in past years. The results will help you decide how hot, cold, wet, or windy it might be!

Date:

Astronomy

Oct. 04, 2012 Rise Set
Actual Time 7:11 AM CDT 6:50 PM CDT
Civil Twilight 6:45 AM CDT 7:16 PM CDT
Nautical Twilight 6:14 AM CDT 7:47 PM CDT
Astronomical Twilight 5:43 AM CDT 8:18 PM CDT
Moon 9:29 PM CDT (10/4) 11:26 AM CDT (10/4)
Length of Visible Light 12h 31m
Length of Day
11h 38m
Waning Gibbous, 82% of the Moon is Illuminated
Oct 4
Waning Gibbous
Oct 8
Last Quarter
Oct 15
New
Oct 21
First Quarter
Oct 29
Full

Hourly Weather History & Observations

Time (CDT) Temp. Dew Point Humidity Pressure Visibility Wind Dir Wind Speed Gust Speed Precip Events Conditions
12:53 AM 59.0 °F 54.0 °F 83% 30.02 in 10.0 mi South 8.1 mph - N/A   Clear
1:53 AM 60.1 °F 54.0 °F 80% 30.04 in 10.0 mi South 6.9 mph - N/A   Clear
2:53 AM 60.1 °F 54.0 °F 80% 30.04 in 10.0 mi South 9.2 mph - N/A   Clear
3:53 AM 61.0 °F 54.0 °F 78% 30.04 in 10.0 mi SSW 10.4 mph - N/A   Clear
4:53 AM 62.1 °F 54.0 °F 75% 30.04 in 10.0 mi SSW 11.5 mph - N/A   Clear
5:53 AM 62.1 °F 54.0 °F 75% 30.06 in 10.0 mi SSW 11.5 mph - N/A   Clear
6:53 AM 63.0 °F 54.0 °F 72% 30.08 in 10.0 mi SSW 12.7 mph - N/A   Mostly Cloudy
7:53 AM 62.1 °F 54.0 °F 75% 30.11 in 10.0 mi SSW 10.4 mph - N/A   Clear
8:53 AM 64.9 °F 55.0 °F 70% 30.12 in 10.0 mi SW 11.5 mph - N/A   Clear
9:53 AM 69.1 °F 55.0 °F 61% 30.12 in 10.0 mi SW 10.4 mph 19.6 mph N/A   Clear
10:53 AM 69.1 °F 55.9 °F 63% 30.13 in 10.0 mi WSW 10.4 mph 18.4 mph N/A   Mostly Cloudy
11:53 AM 71.1 °F 55.0 °F 57% 30.14 in 10.0 mi WNW 11.5 mph 19.6 mph N/A   Clear
12:53 PM 68.0 °F 50.0 °F 52% 30.17 in 10.0 mi NW 11.5 mph 20.7 mph N/A   Scattered Clouds
1:53 PM 68.0 °F 48.0 °F 49% 30.17 in 10.0 mi NW 12.7 mph - N/A   Partly Cloudy
2:53 PM 66.9 °F 46.9 °F 49% 30.16 in 10.0 mi North 11.5 mph 18.4 mph N/A   Partly Cloudy
3:53 PM 66.0 °F 46.0 °F 48% 30.17 in 10.0 mi NNW 11.5 mph - N/A   Scattered Clouds
4:53 PM 62.1 °F 46.0 °F 56% 30.19 in 10.0 mi NNW 16.1 mph - N/A   Mostly Cloudy
5:53 PM 59.0 °F 46.0 °F 62% 30.20 in 10.0 mi NNW 12.7 mph - N/A   Mostly Cloudy
6:53 PM 54.0 °F 43.0 °F 66% 30.21 in 10.0 mi North 15.0 mph - N/A   Overcast
7:53 PM 52.0 °F 42.1 °F 69% 30.22 in 10.0 mi North 11.5 mph - N/A   Overcast
8:53 PM 52.0 °F 42.1 °F 69% 30.22 in 10.0 mi NNE 6.9 mph - N/A   Overcast
9:53 PM 51.1 °F 44.1 °F 77% 30.25 in 10.0 mi NNW 5.8 mph - 0.00 in Rain Light Rain
10:06 PM 50.0 °F 44.6 °F 82% 30.25 in 7.0 mi North 6.9 mph - 0.02 in Rain , Thunderstorm Light Rain
10:21 PM 50.0 °F 44.6 °F 82% 30.25 in 10.0 mi North 6.9 mph - 0.03 in Rain Light Rain
10:41 PM 48.2 °F 46.4 °F 93% 30.24 in 6.0 mi NNE 5.8 mph - 0.07 in Rain , Thunderstorm Light Rain
10:53 PM 48.9 °F 46.0 °F 90% 30.25 in 10.0 mi NNW 6.9 mph - 0.08 in Rain , Thunderstorm Light Thunderstorms and Rain
11:53 PM 48.0 °F 45.0 °F 89% 30.25 in 4.0 mi North 3.5 mph - 0.10 in Rain , Thunderstorm Thunderstorms and Rain